TimePDT,TemperatureF,Dew PointF,Humidity,Sea Level PressureIn,VisibilityMPH,Wind Direction,Wind SpeedMPH,Gust SpeedMPH,PrecipitationIn,Events,Conditions,WindDirDegrees,DateUTC
12:00 AM,39.2,33.8,81,30.25,20.0,ENE,9.2,-,N/A,,Scattered Clouds,60,2013-03-19 07:00:00
1:00 AM,37.4,32.0,81,30.24,20.0,East,6.9,-,N/A,,Scattered Clouds,90,2013-03-19 08:00:00
2:00 AM,35.6,32.0,87,30.23,20.0,East,9.2,-,N/A,,Mostly Cloudy,80,2013-03-19 09:00:00
3:00 AM,35.6,30.2,81,30.22,20.0,East,5.8,-,N/A,,Mostly Cloudy,90,2013-03-19 10:00:00
4:00 AM,35.6,32.0,87,30.22,20.0,East,6.9,-,N/A,,Mostly Cloudy,100,2013-03-19 11:00:00
5:00 AM,35,31,82,30.19,19,ESE,8.1,,,,Scattered Clouds,110,2013-03-19 12:00:00
5:00 AM,35.6,32.0,87,30.19,20.0,ESE,8.1,-,N/A,,Mostly Cloudy,110,2013-03-19 12:00:00
6:00 AM,35.6,32.0,87,30.18,20.0,East,8.1,-,N/A,,Mostly Cloudy,100,2013-03-19 13:00:00
7:00 AM,35.6,30.2,81,30.15,20.0,East,6.9,-,N/A,,Mostly Cloudy,80,2013-03-19 14:00:00
8:00 AM,37.4,30.2,75,30.13,30.0,Calm,Calm,-,N/A,,Overcast,0,2013-03-19 15:00:00
9:00 AM,39.2,32.0,75,30.11,30.0,ESE,3.5,-,N/A,,Overcast,120,2013-03-19 16:00:00
10:00 AM,42.8,32.0,66,30.09,30.0,ESE,3.5,-,N/A,,Overcast,110,2013-03-19 17:00:00
11:00 AM,44,32,50,30.07,28,ESE,5.8,,,,Overcast,120,2013-03-19 18:00:00
11:00 AM,44.6,32.0,61,30.07,30.0,ESE,5.8,-,N/A,,Overcast,120,2013-03-19 18:00:00
12:00 PM,46.4,30.2,53,30.03,30.0,ENE,3.5,-,N/A,,Overcast,70,2013-03-19 19:00:00
1:00 PM,46.4,28.4,50,30.00,30.0,ESE,9.2,-,N/A,,Overcast,120,2013-03-19 20:00:00
2:00 PM,48.2,30.2,50,29.95,30.0,East,6.9,-,N/A,,Overcast,100,2013-03-19 21:00:00
3:00 PM,48.2,30.2,50,29.91,30.0,ESE,8.1,-,N/A,,Overcast,120,2013-03-19 22:00:00
4:00 PM,48.2,32.0,54,29.88,15.0,ESE,10.4,-,N/A,,Overcast,110,2013-03-19 23:00:00
5:00 PM,51,30,32,29.85,15,SE,13.8,,,,Overcast,130,2013-03-20 00:00:00
5:00 PM,51.8,30.2,44,29.85,15.0,ESE,11.5,27.6,N/A,,Overcast,120,2013-03-20 00:00:00
5:43 PM,46.4,-9999,N/A,-9999,10.0,SE,18.4,35.7,N/A,Rain,Light Rain,140,2013-03-20 00:43:00
6:00 PM,44.6,39.2,81,29.83,8.0,SE,18.4,25.3,N/A,Rain,Light Rain,130,2013-03-20 01:00:00
7:00 PM,42.8,41.0,93,29.79,8.0,East,16.1,21.9,N/A,Rain,Light Rain,80,2013-03-20 02:00:00
8:00 PM,41.0,39.2,93,29.74,8.0,East,15.0,21.9,N/A,Rain,Light Rain,80,2013-03-20 03:00:00
9:00 PM,42.8,39.2,87,29.70,10.0,East,13.8,-,N/A,Rain,Light Rain,100,2013-03-20 04:00:00
10:00 PM,41.0,39.2,93,29.65,10.0,East,13.8,-,N/A,Rain,Light Rain,90,2013-03-20 05:00:00
11:00 PM,42,39,87,29.61,10,East,11.5,,,Rain,Light Rain,100,2013-03-20 06:00:00
11:00 PM,41.0,39.2,93,29.61,10.0,East,11.5,17.3,N/A,Rain,Light Rain,90,2013-03-20 06:00:00